Temp
59 59 58 58 58 58 58 57 57 56 56 56 56 56 56 57 57 57 56 56 56 56 57 57 58 58 60 59 62 82 68 72 78 77 75 73 71 71 68 72 75 72 74 77 79 79 80
58 58 57 57 57 57 57 56 56 56 56 56 56 56 56 56 56 56 56 55 55 55 56 57 57 57 58 49 76 79 79 77 76 76 75 76 73 76 71 71 72 76 75 76 77 77 77
57 57 57 56 56 56 56 56 56 56 56 55 56 55 55 55 55 55 55 55 55 55 55 56 57 61 55 55 75 78 78 75 78 77 73 78 79 74 73 68 76 74 68 72 74 75 74
57 57 56 56 56 55 55 56 55 55 55 55 55 55 55 55 54 54 54 54 54 55 55 56 57 60 51 71 75 71 74 72 77 78 74 77 79 73 71 75 71 66 67 60 71 74 74
57 57 56 55 55 55 55 55 55 55 55 55 55 55 54 54 54 54 54 54 54 55 57 57 60 58 51 70 65 71 71 65 72 74 74 74 72 66 67 61 59 63 56 59 64 76 74
56 56 56 55 55 55 55 55 54 54 54 54 54 54 54 54 54 53 53 53 58 58 62 68 65 53 60 57 67 68 71 71 65 66 65 63 64 59 60 59 49 55 57 61 63 73 73
56 55 55 55 55 55 55 55 54 54 54 54 54 54 54 54 54 53 56 66 60 59 59 51 54 52 56 65 69 65 68 62 62 61 53 59 53 51 57 60 63 62 58 58 64 71 67
55 55 55 55 55 55 55 54 54 54 54 54 53 53 53 53 53 53 57 56 54 51 36 54 57 59 64 61 53 60 63 48 47 50 57 55 49 60 64 64 61 60 56 55 63 67 64
54 54 54 54 54 54 54 54 53 53 53 53 53 53 53 53 53 54 59 57 65 56 42 51 59 58 53 55 48 54 58 52 42 48 54 51 56 63 62 60 58 58 55 54 55 60 59
54 53 54 54 54 53 53 53 53 53 53 53 53 53 52 52 50 61 60 63 64 58 37 49 53 53 55 51 44 63 63 55 46 41 56 57 63 61 59 57 60 52 61 56 53 49 41
53 53 53 53 53 52 52 52 52 52 52 53 52 52 52 52 55 57 60 63 62 49 29 52 53 62 57 48 53 55 66 59 47 45 48 54 57 57 55 57 60 55 59 54 53 50 50
53 53 53 52 52 52 52 52 52 52 52 52 52 52 52 59 59 62 63 61 55 32 29 46 54 50 47 46 52 57 60 63 60 50 46 57 66 61 60 63 62 61 54 53 53 51 41
53 52 52 52 52 52 52 52 52 52 52 52 52 52 53 61 55 62 60 56 35 33 50 43 44 48 45 40 40 54 52 50 48 43 38 51 51 63 64 56 60 56 49 34 32 35 37
52 52 52 52 52 52 51 51 51 52 52 52 52 50 53 62 63 60 57 43 29 41 42 49 48 46 37 38 42 43 50 48 54 53 48 44 39 53 61 58 52 52 51 38 29 32 38
52 52 52 52 52 51 51 51 51 52 51 51 50 59 60 59 60 59 52 36 38 39 46 44 48 40 41 44 35 36 44 42 50 55 43 44 45 61 61 62 61 52 48 57 44 47 42
52 52 52 51 51 51 51 51 51 51 51 51 57 58 57 59 60 56 46 35 43 48 48 48 39 43 35 39 36 32 37 40 38 47 54 50 43 57 60 62 62 57 61 46 47 34 35
52 51 51 51 51 51 51 51 51 51 51 51 54 52 57 61 59 54 36 41 44 50 49 44 42 40 42 39 41 32 33 42 44 44 52 51 48 49 57 51 52 53 51 53 53 49 39
51 51 51 51 51 51 50 51 51 51 51 50 54 43 58 60 46 46 42 43 44 47 51 47 46 45 42 42 40 39 38 40 46 43 38 46 44 43 48 60 63 60 54 54 45 43 48
51 51 50 51 50 50 50 50 51 51 51 57 53 53 60 55 39 47 47 45 46 46 46 45 43 46 48 42 37 43 44 50 51 44 38 42 43 32 36 50 58 53 56 55 54 53 43
50 50 50 51 50 50 50 50 51 51 51 53 47 36 53 57 52 43 41 41 43 49 47 48 46 50 46 42 47 41 44 49 52 49 46 45 41 36 33 35 49 47 53 56 53 44 47
50 50 50 50 50 50 50 50 50 51 50 52 47 41 48 39 44 44 44 43 42 41 48 51 46 46 43 38 42 42 47 48 52 49 49 45 38 43 44 45 49 45 47 53 50 51 44
50 50 50 50 50 50 50 50 50 50 50 49 34 42 50 50 44 42 41 43 41 43 45 43 43 45 45 41 43 40 44 45 44 50 46 46 37 44 43 50 49 46 51 52 54 54 53
50 50 50 50 50 50 50 50 50 50 49 49 54 55 49 43 44 43 44 43 42 45 47 48 46 43 42 46 50 51 51 50 49 45 43 41 38 39 37 46 46 40 48 51 53 56 54
50 50 50 50 50 50 49 50 49 50 50 56 53 53 42 37 46 44 44 45 44 45 42 46 48 44 51 56 54 55 54 53 52 50 49 41 40 41 37 41 29 47 56 56 54 52 53
50 50 50 49 50 50 49 49 49 49 50 52 57 49 45 35 44 45 44 44 46 48 44 46 49 53 55 50 41 41 42 42 46 50 49 48 41 37 34 36 43 48 46 42 43 39 48
49 49 50 49 49 49 49 49 49 49 50 44 44 55 47 38 42 48 44 46 43 43 44 46 53 56 52 44 39 33 33 38 36 39 50 49 48 39 38 32 28 34 46 49 48 34 43
49 49 49 49 49 49 48 49 48 49 49 48 44 47 40 35 49 49 45 43 49 46 41 46 47 47 52 38 35 36 36 46 36 32 31 37 37 34 37 35 40 46 50 48 33 32 43
48 48 48 48 48 48 48 48 48 48 49 48 44 47 41 38 48 49 51 47 48 45 37 43 44 42 42 36 37 37 37 42 41 42 37 36 34 33 39 33 29 45 47 35 35 42 44
48 48 48 48 48 48 48 48 48 48 48 49 43 44 45 38 39 49 52 55 53 51 45 46 41 41 44 38 41 41 35 40 39 34 46 35 39 32 35 31 38 41 37 42 45 44 45
MSLP
1020.80 1020.55 1021.08 1021.21 1021.30 1021.25 1021.23 1021.20 1021.23 1021.18 1021.12 1020.83 1020.59 1020.43 1020.22 1019.92 1019.68 1019.47 1019.20 1018.78 1018.33 1018.00 1017.72 1017.32 1017.11 1016.84 1016.08 1013.44 1010.71 1009.20 1009.78 1009.56 1009.52 1009.01 1008.17 1007.49 1006.72 1005.80 1003.95 1003.71 1003.16 1001.92 1002.00 1001.88 1001.87 1001.45 1001.35
1020.56 1020.67 1020.78 1021.03 1021.21 1021.22 1021.11 1021.12 1021.18 1021.12 1021.10 1020.90 1020.59 1020.29 1019.97 1019.73 1019.44 1019.18 1018.90 1018.49 1018.17 1017.66 1017.28 1017.16 1016.95 1016.68 1015.32 1012.07 1009.35 1009.08 1008.74 1008.70 1008.41 1007.90 1007.18 1006.83 1005.91 1005.42 1004.26 1003.25 1002.28 1001.96 1001.86 1001.51 1001.51 1001.23 1001.46
1020.28 1020.53 1020.72 1021.00 1021.06 1021.18 1021.00 1021.07 1021.05 1021.08 1021.03 1020.82 1020.44 1020.08 1019.86 1019.62 1019.50 1019.22 1018.67 1018.15 1017.70 1017.29 1016.98 1016.72 1016.30 1015.73 1013.84 1010.54 1009.39 1009.00 1008.43 1008.19 1007.63 1007.12 1006.25 1005.88 1005.75 1005.13 1004.36 1003.49 1002.72 1002.38 1001.64 1001.47 1000.76 1000.87 1000.74
1020.16 1020.43 1020.68 1020.84 1020.93 1021.03 1021.04 1021.02 1021.01 1021.01 1020.85 1020.57 1020.31 1020.04 1019.83 1019.54 1019.27 1019.03 1018.63 1017.94 1017.23 1016.73 1016.15 1015.62 1015.73 1015.00 1012.02 1009.82 1009.58 1009.23 1008.55 1007.74 1007.44 1006.99 1006.80 1006.07 1005.46 1005.05 1004.45 1003.60 1002.77 1002.25 1001.86 1000.36 999.85 1000.51 1000.42
1020.12 1020.43 1020.60 1020.72 1020.84 1020.91 1020.95 1020.92 1020.94 1020.84 1020.62 1020.43 1020.17 1019.99 1019.76 1019.47 1019.32 1018.91 1018.28 1017.10 1015.97 1015.64 1015.35 1015.11 1014.62 1013.33 1010.43 1009.06 1008.64 1008.24 1008.33 1007.39 1006.54 1006.29 1006.44 1006.76 1006.12 1005.16 1004.80 1003.68 1002.70 1001.49 999.61 999.18 999.29 999.17 999.41
1020.10 1020.31 1020.44 1020.74 1020.68 1020.75 1020.79 1020.72 1020.69 1020.57 1020.43 1020.33 1020.10 1019.90 1019.69 1019.31 1018.96 1018.51 1017.66 1016.19 1014.52 1014.89 1014.36 1012.96 1012.77 1012.72 1009.67 1008.82 1008.24 1007.85 1008.25 1007.01 1006.05 1005.84 1005.78 1005.73 1004.84 1004.04 1003.60 1002.03 999.63 998.55 999.58 999.17 997.97 997.43 997.92
1019.93 1020.39 1020.54 1020.69 1020.57 1020.65 1020.69 1020.53 1020.46 1020.50 1020.16 1020.21 1020.16 1019.88 1019.30 1019.06 1018.90 1018.41 1017.38 1014.41 1013.87 1013.46 1013.23 1013.48 1012.17 1011.55 1010.05 1009.02 1008.15 1007.24 1007.53 1007.18 1005.80 1005.06 1003.42 1003.23 1002.98 1000.89 999.25 1000.11 999.73 1000.05 999.40 998.84 998.46 997.90 998.42
1019.84 1020.33 1020.74 1020.56 1020.50 1020.44 1020.52 1020.52 1020.36 1020.34 1020.16 1020.06 1019.94 1019.81 1019.43 1019.16 1018.84 1018.40 1017.57 1015.74 1016.16 1017.41 1014.18 1012.41 1010.97 1010.01 1009.12 1008.85 1007.12 1006.03 1007.49 1007.81 1006.29 1003.68 1003.14 1002.22 1000.59 998.44 999.78 999.78 999.96 999.83 999.68 999.98 999.19 999.20 1000.17
1019.89 1019.99 1020.75 1020.46 1020.44 1020.35 1020.37 1020.46 1020.38 1020.10 1020.08 1019.92 1020.02 1019.83 1019.41 1019.13 1018.77 1018.17 1016.71 1016.11 1016.00 1016.82 1015.04 1010.26 1009.20 1008.92 1009.37 1009.39 1007.27 1004.69 1005.94 1006.57 1006.52 1004.05 1001.81 1000.10 998.42 999.22 999.08 999.04 999.10 999.47 999.82 1000.49 1000.13 1000.66 1001.61
1019.93 1020.02 1020.54 1020.72 1020.35 1020.29 1020.33 1020.29 1020.22 1020.09 1020.10 1020.00 1020.05 1019.92 1019.29 1019.09 1019.16 1016.70 1015.52 1016.21 1016.17 1016.37 1014.19 1009.46 1008.72 1009.13 1009.04 1008.82 1006.13 1003.02 1004.39 1005.24 1005.55 1004.00 1000.66 999.58 998.69 997.94 998.24 998.15 998.77 998.86 1000.37 1001.63 1001.98 1002.79 1002.33
1019.94 1019.96 1020.59 1020.74 1020.35 1020.31 1020.19 1020.30 1020.18 1020.21 1020.12 1019.95 1019.98 1019.74 1019.40 1019.07 1018.20 1016.27 1016.27 1016.35 1016.12 1016.46 1012.75 1009.09 1008.46 1008.91 1008.43 1007.58 1005.25 1003.20 1003.55 1003.93 1003.54 1003.36 1001.69 998.62 998.08 997.58 997.61 997.75 999.13 999.63 1001.00 1002.36 1002.96 1002.90 1002.23
1019.47 1020.14 1020.46 1020.53 1020.52 1020.28 1020.14 1020.13 1020.02 1020.18 1019.99 1019.74 1019.75 1019.59 1019.32 1017.29 1017.35 1016.23 1016.32 1016.36 1016.00 1015.52 1010.91 1008.99 1008.37 1007.82 1007.29 1007.33 1005.48 1003.62 1002.62 1003.26 1002.74 1002.17 1002.03 998.52 998.13 998.01 997.63 998.24 999.18 1000.67 1001.93 1002.55 1002.81 1002.58 1001.06
1019.82 1020.10 1020.24 1020.29 1020.30 1020.34 1020.08 1020.14 1020.05 1019.96 1019.92 1019.49 1019.35 1019.36 1019.19 1017.76 1016.58 1016.59 1016.42 1015.05 1014.81 1012.59 1010.73 1009.85 1008.66 1007.94 1007.92 1007.22 1006.07 1003.37 1002.63 1002.60 1002.11 1001.25 1001.58 999.50 999.02 997.48 997.60 998.23 999.54 1000.88 1001.80 1002.67 1003.02 1002.00 999.44
1019.52 1019.77 1020.42 1019.96 1020.13 1020.29 1020.05 1020.07 1020.14 1019.95 1019.43 1019.32 1018.88 1018.94 1018.42 1017.32 1017.09 1016.72 1015.54 1014.63 1013.41 1011.62 1011.12 1010.92 1009.52 1008.73 1008.75 1009.17 1006.44 1005.12 1002.88 1002.59 1002.42 1000.97 999.77 999.07 998.59 998.10 998.02 997.99 999.09 999.86 1000.23 1000.36 1000.25 1000.09 999.02
1019.26 1019.49 1019.87 1020.15 1019.94 1020.11 1019.90 1020.01 1020.10 1019.70 1019.35 1018.98 1018.58 1017.59 1017.08 1017.33 1017.16 1016.38 1014.70 1013.41 1012.11 1012.54 1012.17 1010.99 1009.30 1008.73 1008.68 1008.76 1009.29 1007.61 1004.62 1004.39 1003.25 1002.26 1001.57 999.74 998.35 997.71 998.20 998.13 998.28 999.16 999.13 999.21 999.66 999.35 998.37
1019.09 1019.43 1019.74 1019.98 1019.89 1019.84 1019.91 1019.94 1020.05 1019.63 1019.16 1019.11 1017.60 1016.93 1016.74 1017.29 1016.88 1015.69 1014.46 1013.77 1012.77 1012.86 1012.45 1011.24 1009.97 1009.56 1008.71 1008.77 1008.49 1008.03 1006.78 1007.22 1006.51 1005.37 1003.53 1000.75 998.96 998.21 998.16 998.32 998.26 998.26 998.91 999.12 999.50 998.77 997.65
1018.92 1019.44 1019.49 1019.81 1019.79 1019.66 1019.80 1019.74 1019.91 1019.42 1019.25 1018.88 1017.63 1015.95 1016.60 1016.85 1016.26 1014.65 1014.41 1013.49 1013.33 1013.08 1012.63 1011.75 1010.89 1010.27 1009.64 1009.42 1008.94 1008.87 1008.50 1007.59 1007.49 1006.21 1004.62 1002.72 1000.59 999.23 998.60 998.61 997.96 998.11 997.96 998.51 998.62 998.49 997.66
1018.88 1019.26 1019.42 1019.47 1019.58 1019.67 1019.79 1019.73 1019.61 1019.37 1019.05 1018.92 1016.91 1015.90 1016.58 1016.45 1015.17 1014.83 1013.94 1014.11 1014.17 1013.00 1012.33 1011.78 1011.50 1010.85 1010.24 1009.75 1009.02 1008.63 1008.32 1008.29 1008.38 1007.61 1006.05 1004.53 1002.69 1000.02 998.84 997.98 997.53 997.65 997.99 998.25 998.15 998.08 997.98
1018.72 1018.95 1019.38 1019.11 1019.29 1019.56 1019.91 1019.64 1019.48 1019.37 1019.17 1017.65 1016.10 1015.85 1016.39 1016.17 1014.75 1013.85 1013.95 1013.68 1013.62 1012.98 1012.39 1012.14 1011.72 1011.36 1010.57 1009.77 1009.25 1008.50 1008.11 1007.91 1007.37 1007.31 1007.10 1006.10 1003.11 1002.00 1000.69 999.13 998.16 997.84 998.27 998.49 998.56 998.29 998.45
1018.30 1018.68 1018.89 1018.97 1019.08 1019.53 1019.61 1019.65 1019.51 1019.30 1019.21 1018.74 1017.14 1016.37 1015.55 1015.32 1015.48 1014.89 1014.25 1013.76 1013.11 1012.88 1012.55 1012.32 1011.83 1011.16 1010.79 1010.30 1009.28 1008.77 1008.16 1007.83 1007.42 1007.49 1007.22 1006.53 1004.95 1003.50 1002.43 1001.45 999.42 998.50 998.10 998.30 998.40 998.36 997.94
1017.95 1018.42 1018.46 1018.82 1019.02 1019.33 1019.43 1019.58 1019.52 1019.23 1019.09 1019.06 1017.67 1016.77 1016.27 1015.60 1015.05 1015.09 1014.79 1014.12 1013.21 1012.77 1012.57 1011.95 1011.47 1011.22 1011.13 1010.33 1009.44 1008.59 1008.24 1007.76 1007.19 1007.43 1007.06 1006.80 1005.29 1003.70 1002.80 1001.98 1000.44 1000.07 999.56 998.28 998.13 998.45 998.49
1017.77 1017.85 1018.33 1018.75 1018.89 1019.10 1019.31 1019.55 1019.33 1019.15 1019.16 1018.83 1018.04 1016.91 1016.38 1015.56 1015.75 1015.43 1014.81 1013.86 1013.66 1013.33 1013.06 1012.23 1011.86 1011.61 1011.12 1010.01 1009.21 1008.48 1008.56 1008.13 1007.70 1007.11 1007.06 1006.93 1005.67 1004.38 1002.91 1001.82 1001.07 1000.25 999.56 999.16 998.84 998.73 998.76
1017.32 1017.61 1018.04 1018.40 1018.71 1018.99 1019.16 1019.29 1019.18 1019.10 1019.22 1018.32 1017.65 1017.45 1016.99 1016.14 1015.29 1015.02 1014.49 1014.46 1014.12 1013.99 1013.41 1013.04 1012.82 1012.27 1011.26 1010.46 1010.11 1009.34 1008.74 1008.21 1007.94 1007.62 1007.44 1007.37 1006.46 1004.85 1003.02 1002.19 1001.49 1000.85 1000.19 1000.05 999.92 999.80 1000.05
1016.89 1017.24 1017.81 1018.24 1018.53 1018.76 1018.96 1018.98 1019.12 1019.02 1019.15 1018.14 1018.02 1017.76 1017.48 1016.32 1015.28 1014.96 1014.90 1014.70 1014.33 1014.07 1013.84 1013.57 1013.19 1012.43 1011.58 1011.20 1010.25 1008.52 1007.23 1006.68 1006.67 1006.89 1007.46 1007.32 1006.89 1005.58 1004.02 1003.27 1002.24 1001.39 1001.28 1000.87 1000.81 1001.50 1002.13
1016.56 1017.12 1017.51 1017.84 1018.15 1018.57 1018.60 1018.81 1019.02 1019.01 1019.27 1018.85 1018.45 1018.30 1017.74 1016.97 1015.82 1015.02 1014.81 1014.59 1014.32 1013.90 1013.70 1013.36 1012.95 1012.50 1012.31 1011.61 1010.12 1007.88 1006.59 1006.64 1006.23 1006.35 1006.67 1007.25 1007.32 1006.07 1004.86 1003.64 1002.81 1002.20 1003.69 1004.05 1003.66 1004.50 1004.73
1016.27 1016.76 1017.15 1017.53 1017.95 1018.20 1018.45 1018.74 1018.91 1019.03 1019.06 1019.71 1019.62 1019.16 1018.97 1018.00 1015.84 1015.25 1014.96 1014.60 1014.12 1013.70 1013.39 1013.26 1012.94 1012.85 1012.49 1011.53 1010.49 1008.82 1007.03 1006.41 1006.36 1006.74 1006.86 1006.80 1007.01 1007.01 1005.91 1005.00 1004.54 1005.85 1005.52 1005.58 1005.20 1005.83 1006.73
1015.91 1016.44 1016.85 1017.22 1017.59 1017.95 1018.30 1018.60 1018.81 1018.95 1019.03 1019.24 1019.55 1019.86 1019.94 1018.90 1016.44 1015.77 1015.04 1014.71 1014.34 1014.16 1013.94 1013.49 1013.21 1012.67 1012.31 1011.92 1010.67 1008.86 1007.62 1006.84 1006.44 1006.82 1007.29 1007.37 1007.45 1007.27 1006.69 1006.38 1006.36 1007.17 1006.53 1006.89 1007.27 1008.85 1008.22
1015.53 1016.04 1016.47 1016.92 1017.30 1017.72 1018.13 1018.41 1018.63 1018.82 1018.92 1019.05 1019.17 1019.54 1019.81 1019.13 1017.00 1016.46 1015.80 1015.20 1014.64 1014.76 1014.86 1014.56 1013.82 1013.63 1012.81 1012.21 1011.07 1010.05 1008.96 1007.87 1007.35 1007.33 1007.50 1007.46 1007.54 1007.62 1007.47 1008.01 1008.60 1009.17 1008.24 1009.15 1010.15 1009.77 1009.46
1015.12 1015.67 1016.14 1016.61 1017.04 1017.45 1017.81 1018.14 1018.43 1018.66 1018.77 1018.94 1019.01 1019.43 1019.61 1019.61 1018.41 1017.34 1016.32 1015.57 1015.30 1015.15 1015.46 1015.02 1015.01 1014.68 1013.92 1013.20 1012.23 1011.52 1010.59 1009.63 1008.73 1007.80 1008.03 1008.47 1009.38 1009.97 1010.53 1011.16 1011.64 1011.71 1011.77 1011.55 1010.89 1010.76 1010.57
Wind_Speed
9 9 8 7 6 5 5 4 5 6 7 7 7 9 10 12 13 15 16 17 18 18 18 19 19 17 14 12 21 17 13 14 14 14 13 13 19 22 28 25 25 31 26 25 23 22 23
11 9 8 6 5 4 4 4 4 4 5 6 8 9 11 13 14 16 18 18 19 20 19 19 19 16 18 27 11 15 18 17 18 21 22 21 17 20 23 26 28 24 27 27 24 24 19
10 10 9 7 6 4 4 3 2 4 6 8 9 11 12 14 15 17 18 20 21 22 21 21 20 14 21 30 18 17 18 18 15 13 20 21 22 20 16 24 23 26 28 24 21 21 27
10 9 9 7 6 5 3 3 4 5 6 8 9 11 11 13 15 18 19 21 23 24 23 22 20 16 20 17 15 18 24 30 23 17 14 12 15 18 24 16 20 19 25 27 26 22 19
10 10 8 7 5 4 3 3 5 6 7 8 9 11 13 14 15 17 20 24 25 24 19 18 16 12 20 9 12 14 18 26 26 28 23 18 17 20 17 22 19 24 24 29 25 25 26
10 10 8 7 6 4 4 5 5 6 7 9 10 11 12 14 16 19 22 27 24 15 12 16 6 11 17 13 19 13 18 25 22 25 26 25 16 18 22 22 27 26 26 25 23 23 26
12 9 8 7 6 4 2 3 5 7 8 9 10 11 14 16 18 20 18 15 11 5 7 16 25 28 32 26 24 29 27 19 26 23 30 32 25 27 40 32 29 28 17 21 16 19 11
11 10 8 7 5 4 3 3 4 6 7 8 10 13 14 17 18 20 15 10 10 6 17 18 25 22 20 22 32 27 25 10 25 26 28 24 29 41 26 27 30 26 20 23 21 6 10
11 9 8 6 4 4 3 4 5 6 8 9 10 12 14 17 19 11 7 7 8 10 9 13 5 13 15 18 20 30 20 20 25 27 26 31 34 26 27 25 27 27 24 22 19 9 16
10 9 6 5 4 3 2 3 5 6 8 9 10 12 13 16 13 8 4 10 9 7 7 5 13 2 18 22 16 20 17 24 10 14 26 28 26 27 27 27 22 24 19 19 15 12 20
10 9 6 5 2 4 3 3 5 6 7 9 10 11 13 9 12 7 9 9 9 2 8 14 11 2 20 22 20 8 15 20 22 19 25 19 16 23 26 25 20 16 15 13 16 19 19
10 8 6 5 4 2 2 2 4 5 8 9 9 12 13 8 11 6 10 10 2 3 4 12 20 22 27 16 22 9 11 17 14 14 20 15 15 13 19 19 19 10 7 10 11 13 17
9 7 7 7 3 2 2 3 3 6 9 10 11 13 11 7 7 10 9 6 6 7 13 15 27 23 21 26 17 12 11 18 16 13 7 7 20 19 12 18 16 16 15 7 7 9 15
11 8 7 6 4 2 1 2 4 7 9 11 12 13 7 5 7 7 7 2 6 7 13 20 19 14 9 20 21 23 9 14 18 20 13 9 8 10 12 17 14 21 20 6 7 11 12
10 7 7 7 5 2 0 3 5 7 10 12 16 6 4 4 6 5 6 6 9 9 14 16 19 14 14 17 10 11 13 17 10 11 11 12 14 18 15 13 15 22 18 13 6 8 5
10 8 8 6 4 2 2 3 6 7 10 9 7 4 4 6 7 7 2 5 6 6 12 13 14 13 20 21 16 15 14 12 11 15 14 10 6 8 16 14 13 15 14 13 8 5 7
10 8 6 6 2 4 2 2 6 7 10 11 8 5 6 6 6 2 2 5 7 7 9 9 14 16 16 18 15 10 12 8 20 14 14 10 9 8 12 14 20 12 12 12 11 12 5
10 9 8 5 5 3 2 3 5 7 11 11 3 2 4 5 2 2 4 6 5 6 6 5 7 14 14 18 9 8 13 9 11 11 9 7 9 14 19 12 15 23 16 18 9 14 9
10 11 9 7 6 4 2 2 4 5 8 7 3 2 3 5 2 2 3 4 2 7 5 6 6 10 14 10 7 9 12 8 16 13 12 10 4 2 6 6 8 15 17 14 12 12 7
13 12 9 8 8 5 2 3 6 6 6 7 3 1 1 1 2 5 5 4 7 2 5 8 6 8 12 12 14 6 13 13 10 10 8 9 6 5 5 6 5 11 16 18 14 9 10
12 12 8 9 8 5 2 4 7 7 6 6 4 2 4 1 1 6 5 4 8 7 5 5 5 12 14 11 12 11 17 13 15 4 10 7 8 8 3 9 4 4 10 10 12 12 9
12 12 10 12 9 5 3 5 6 5 7 6 3 3 5 1 2 4 2 3 7 9 10 9 10 15 16 14 16 19 19 17 9 10 11 12 6 8 9 8 6 6 7 8 11 10 11
15 13 10 13 9 6 6 5 5 5 11 2 2 2 6 1 3 3 2 7 9 10 7 6 13 16 16 16 20 22 21 20 19 17 9 7 7 8 3 3 3 8 11 12 11 11 8
15 14 14 12 11 8 7 5 4 5 14 4 1 2 1 4 3 3 5 8 10 10 12 15 13 13 13 20 23 21 20 15 14 12 6 8 9 5 5 3 5 5 8 8 10 9 7
14 15 13 14 11 10 8 5 4 3 16 6 1 3 2 4 6 6 5 7 9 9 10 11 11 9 14 17 11 13 3 4 5 11 10 11 6 5 4 6 7 8 9 10 12 5 10
15 15 13 14 12 8 9 7 3 4 6 2 2 1 2 4 3 6 7 9 8 8 7 4 5 9 10 8 7 8 6 4 2 3 0 5 7 6 6 5 2 7 10 13 17 4 7
17 16 14 13 12 10 9 8 4 5 4 5 3 4 2 3 10 9 8 6 7 7 6 7 8 8 6 3 8 7 5 7 4 4 1 2 4 9 9 7 6 15 11 7 6 5 8
17 16 13 12 11 11 10 10 6 4 4 4 2 8 4 4 11 13 11 11 9 6 6 8 8 1 4 4 4 5 5 6 5 4 2 4 4 2 4 5 2 19 6 6 1 6 7
16 16 14 12 11 11 12 9 9 5 5 5 2 5 5 2 6 11 14 15 13 14 6 3 8 9 4 4 4 4 5 5 10 4 5 3 6 3 6 4 7 10 9 9 8 7 9
Wind_Direction
162 148 136 125 106 120 105 68 46 34 29 29 24 10 358 349 343 337 330 325 320 315 311 309 309 315 313 284 254 262 193 245 260 251 240 233 238 234 234 235 237 232 244 239 250 247 259
156 152 145 137 124 117 98 75 52 31 14 4 359 356 351 344 339 332 325 319 313 308 308 303 302 309 286 274 269 267 267 265 254 242 236 240 241 240 253 240 245 242 238 249 239 254 230
160 152 144 138 127 112 96 75 42 21 10 2 1 358 350 344 336 329 322 316 307 302 301 298 299 292 273 261 281 284 281 248 251 244 240 234 240 244 245 251 252 254 259 259 236 243 243
163 155 152 146 137 118 98 86 63 24 14 9 2 356 348 344 338 328 317 307 295 295 300 295 292 276 266 296 298 290 264 256 248 234 241 269 248 254 251 264 241 238 240 243 235 229 228
172 164 155 151 143 146 128 89 48 22 15 5 359 351 345 336 326 316 312 308 297 294 291 280 259 242 279 319 260 265 255 266 255 238 239 243 236 229 229 235 241 233 233 227 241 226 225
179 165 159 154 154 151 126 85 49 30 14 3 355 344 336 332 329 324 317 298 280 280 240 241 278 258 226 282 294 279 299 292 236 249 217 217 215 216 223 215 220 222 221 241 253 215 222
169 155 159 165 158 146 107 72 43 16 12 358 347 338 338 332 328 324 313 305 5 229 308 296 286 295 290 293 299 280 282 292 289 223 217 205 205 207 215 216 230 238 258 253 244 250 215
157 166 171 170 162 127 101 51 27 9 1 1 354 344 335 327 324 313 287 5 27 320 297 271 257 260 317 354 309 266 266 254 271 229 210 198 211 218 218 216 226 238 234 241 248 197 254
167 167 183 167 159 132 74 39 18 15 8 358 343 335 332 323 316 284 315 18 334 7 282 302 76 338 342 331 298 281 251 235 259 239 208 224 216 216 217 219 223 219 227 225 239 242 306
168 166 179 181 159 120 83 42 16 3 351 341 326 321 327 319 287 345 6 0 348 356 287 4 358 345 328 323 271 255 215 231 225 278 227 223 216 200 216 218 215 221 209 230 249 232 250
173 168 177 190 146 138 85 25 8 353 337 326 317 314 315 302 308 314 350 340 340 46 297 11 344 306 318 332 295 172 197 216 242 247 310 211 229 220 210 215 201 229 208 231 216 234 238
172 166 186 180 162 129 78 358 352 333 330 329 318 316 312 260 245 339 341 311 25 227 322 340 346 339 340 10 286 257 197 203 243 273 303 237 201 196 218 200 200 152 149 215 231 245 245
170 187 198 179 144 96 65 3 339 328 320 324 320 309 284 301 329 331 307 270 276 274 354 347 334 340 345 351 317 250 183 200 231 217 218 192 257 185 200 157 171 166 167 165 203 213 237
172 172 206 176 167 159 82 351 330 319 326 326 311 304 188 290 322 317 283 281 271 32 357 332 324 341 358 11 330 330 182 201 230 269 288 235 189 168 204 185 184 191 186 162 180 207 219
181 172 189 175 166 181 210 322 321 322 332 334 303 215 247 36 321 304 280 255 6 347 342 326 320 345 350 11 338 323 71 4 23 325 293 256 235 176 180 185 197 194 205 210 289 244 255
184 199 178 185 183 186 236 294 310 320 337 330 300 240 85 327 313 267 335 283 324 349 326 331 342 351 338 1 346 337 22 22 352 324 309 298 233 191 178 216 221 195 208 212 223 238 230
191 177 181 175 206 179 208 309 302 321 320 314 269 235 67 319 266 281 276 347 316 351 328 340 332 334 340 351 352 347 20 13 358 334 319 306 272 174 162 206 216 212 203 218 236 238 251
191 182 186 188 172 184 221 317 302 314 311 278 262 298 37 299 234 190 307 342 308 319 320 350 330 339 343 330 336 6 17 32 358 342 343 326 301 194 201 178 234 209 209 213 220 217 244
194 195 197 173 172 186 235 322 324 315 316 301 313 24 109 264 269 286 32 319 236 319 357 357 328 344 332 337 343 346 19 348 353 14 359 337 314 179 202 152 170 194 205 223 227 282 237
193 198 202 201 180 190 222 305 321 310 270 279 26 24 117 215 167 316 1 359 313 57 305 325 308 325 351 341 332 335 3 358 354 3 342 308 316 327 343 341 203 211 201 202 216 227 241
201 199 192 183 174 180 233 291 319 320 220 269 7 267 7 159 296 329 305 285 313 349 337 321 308 353 347 332 322 349 340 343 340 32 350 0 285 322 347 258 288 243 217 222 229 237 244
201 193 197 191 175 175 238 271 318 309 194 269 137 251 179 63 322 304 129 278 314 320 332 324 332 341 329 324 328 327 333 326 320 329 356 337 297 327 276 239 271 263 262 265 262 259 269
195 193 194 185 191 197 231 257 323 216 205 210 278 107 292 170 198 272 20 309 316 325 313 331 336 323 320 327 325 310 302 289 278 287 318 302 322 324 294 350 320 261 249 249 250 259 273
201 196 189 190 192 190 227 237 309 226 217 294 318 289 239 281 265 309 306 297 297 301 300 303 303 300 314 324 307 287 270 265 259 252 217 279 310 290 298 243 225 66 354 284 252 43 347
198 199 196 190 195 205 211 223 305 279 206 269 263 257 260 269 303 274 276 297 297 272 266 293 303 322 316 305 304 304 280 249 246 240 227 199 257 297 275 276 272 148 31 2 350 82 23
198 203 204 202 202 202 204 206 276 274 224 130 321 62 298 293 273 351 309 305 296 311 304 284 311 318 298 302 289 287 317 329 155 191 70 224 246 273 284 264 276 25 24 342 325 114 48
197 201 205 203 204 200 200 205 227 256 243 191 176 178 123 261 279 280 274 317 315 308 286 332 338 313 290 302 286 295 308 333 320 49 201 271 238 240 248 252 112 360 358 346 267 40 31
194 198 199 202 204 196 202 206 213 241 245 215 158 187 178 233 286 285 278 276 277 272 321 342 308 360 297 297 302 346 319 350 314 35 1 13 301 294 260 233 208 356 70 19 187 25 39
195 198 195 201 206 212 199 207 217 237 248 256 234 196 200 246 290 324 297 292 288 290 294 309 311 324 294 301 354 329 321 329 324 319 22 54 31 330 10 27 26 28 56 18 33 55 39